| time (UTC) | temp C | wind direction | speed KPH | gust KPH | rain 1hr cm | rain 24hr cm | rain mn cm | humidity % | barometer mb |
| 20260507225004 | 10 | 11 | 1.6 | 3.2 | 0.00 | 0.00 | 0.00 | 86 | 1018.8 |
| 20260507224505 | 10 | 45 | 0.0 | 3.2 | 0.00 | 0.00 | 0.00 | 86 | 1018.8 |
| 20260507223505 | 10 | 84 | 3.2 | 3.2 | 0.00 | 0.00 | 0.00 | 87 | 1019.8 |
| 20260507223005 | 10 | 110 | 3.2 | 3.2 | 0.00 | 0.00 | 0.00 | 87 | 1019.8 |
| 20260507222504 | 10 | 124 | 3.2 | 3.2 | 0.00 | 0.00 | 0.00 | 86 | 1019.8 |
| 20260507222005 | 10 | 124 | 0.0 | 3.2 | 0.00 | 0.00 | 0.00 | 86 | 1019.8 |
| 20260507221504 | 10 | 91 | 1.6 | 3.2 | 0.00 | 0.00 | 0.00 | 87 | 1019.8 |
| 20260507221004 | 10 | 98 | 0.0 | 3.2 | 0.00 | 0.00 | 0.00 | 86 | 1018.8 |
| 20260507220505 | 10 | 140 | 1.6 | 3.2 | 0.00 | 0.00 | 0.00 | 86 | 1018.8 |
| 20260507220011 | 10 | 84 | 0.0 | 3.2 | 0.00 | 0.00 | 0.00 | 85 | 1018.8 |
| 20260507215506 | 10 | 73 | 1.6 | 3.2 | 0.00 | 0.00 | 0.00 | 85 | 1018.8 |
| 20260507215006 | 10 | 94 | 1.6 | 3.2 | 0.00 | 0.00 | 0.00 | 86 | 1018.8 |
| 20260507214507 | 10 | 95 | 3.2 | 3.2 | 0.00 | 0.00 | 0.00 | 85 | 1018.8 |
| 20260507213507 | 10 | 115 | 1.6 | 3.2 | 0.00 | 0.00 | 0.00 | 84 | 1018.8 |
| 20260507213006 | 10 | 130 | 0.0 | 3.2 | 0.00 | 0.00 | 0.00 | 84 | 1018.8 |
| 20260507212507 | 10 | 89 | 1.6 | 3.2 | 0.00 | 0.00 | 0.00 | 84 | 1018.8 |
| 20260507212007 | 10 | 46 | 1.6 | 3.2 | 0.00 | 0.00 | 0.00 | 82 | 1018.8 |
| 20260507211506 | 10 | 74 | 0.0 | 3.2 | 0.00 | 0.00 | 0.00 | 84 | 1018.8 |
| 20260507211007 | 10 | 98 | 0.0 | 3.2 | 0.00 | 0.00 | 0.00 | 82 | 1018.8 |
| 20260507210506 | 10 | 112 | 0.0 | 3.2 | 0.00 | 0.00 | 0.00 | 84 | 1018.8 |
| 20260507210006 | 10 | 127 | 1.6 | 3.2 | 0.00 | 0.00 | 0.00 | 82 | 1018.8 |
| 20260507205507 | 10 | 0 | 0.0 | 0.0 | 0.00 | 0.00 | 0.00 | 82 | 1017.7 |
| 20260507205006 | 10 | 154 | 0.0 | 3.2 | 0.00 | 0.00 | 0.00 | 81 | 1017.7 |
| 20260507204506 | 10 | 148 | 0.0 | 3.2 | 0.00 | 0.00 | 0.00 | 81 | 1017.7 |
| 20260507204006 | 11 | 111 | 1.6 | 3.2 | 0.00 | 0.00 | 0.00 | 82 | 1017.7 |
| 20260507203507 | 11 | 0 | 0.0 | 0.0 | 0.00 | 0.00 | 0.00 | 81 | 1017.7 |
| 20260507203006 | 11 | 68 | 0.0 | 3.2 | 0.00 | 0.00 | 0.00 | 80 | 1017.7 |
| 20260507202506 | 11 | 82 | 0.0 | 4.8 | 0.00 | 0.00 | 0.00 | 81 | 1016.7 |
| 20260507202006 | 11 | 82 | 1.6 | 4.8 | 0.00 | 0.00 | 0.00 | 81 | 1016.7 |
| 20260507201507 | 11 | 70 | 1.6 | 3.2 | 0.00 | 0.00 | 0.00 | 81 | 1016.7 |
| 20260507201007 | 11 | 68 | 1.6 | 3.2 | 0.00 | 0.00 | 0.00 | 78 | 1016.7 |
| 20260507200507 | 11 | 68 | 0.0 | 3.2 | 0.00 | 0.00 | 0.00 | 79 | 1016.7 |
| 20260507200007 | 11 | 0 | 0.0 | 0.0 | 0.00 | 0.00 | 0.00 | 79 | 1016.7 |
| 20260507195506 | 11 | 0 | 0.0 | 0.0 | 0.00 | 0.00 | 0.00 | 78 | 1017.7 |
| 20260507194506 | 11 | 225 | 0.0 | 1.6 | 0.00 | 0.00 | 0.00 | 78 | 1017.7 |
| 20260507194006 | 12 | 1 | 0.0 | 1.6 | 0.00 | 0.00 | 0.00 | 76 | 1017.7 |
| 20260507193507 | 12 | 1 | 0.0 | 1.6 | 0.00 | 0.00 | 0.00 | 75 | 1017.7 |
| 20260507193006 | 12 | 0 | 0.0 | 0.0 | 0.00 | 0.00 | 0.00 | 76 | 1017.7 |
| 20260507191506 | 12 | 196 | 0.0 | 1.6 | 0.00 | 0.00 | 0.00 | 74 | 1017.7 |
| 20260507191007 | 13 | 0 | 0.0 | 0.0 | 0.00 | 0.00 | 0.00 | 74 | 1016.7 |
| 20260507190006 | 13 | 314 | 0.0 | 1.6 | 0.00 | 0.00 | 0.00 | 73 | 1016.7 |
| 20260507185006 | 13 | 0 | 0.0 | 0.0 | 0.00 | 0.00 | 0.00 | 73 | 1016.7 |
| 20260507183506 | 14 | 249 | 1.6 | 3.2 | 0.00 | 0.10 | 0.00 | 70 | 1015.7 |
| 20260507182506 | 15 | 314 | 0.0 | 1.6 | 0.00 | 0.20 | 0.00 | 68 | 1015.7 |
| 20260507182007 | 15 | 188 | 0.0 | 3.2 | 0.00 | 0.30 | 0.00 | 67 | 1015.7 |
| 20260507181506 | 15 | 186 | 0.0 | 3.2 | 0.00 | 0.74 | 0.00 | 67 | 1015.7 |
| 20260507181006 | 15 | 179 | 0.0 | 3.2 | 0.00 | 0.84 | 0.00 | 66 | 1015.7 |
| 20260507180507 | 16 | 323 | 0.0 | 3.2 | 0.00 | 0.84 | 0.00 | 66 | 1015.7 |
| 20260507180006 | 16 | 234 | 0.0 | 3.2 | 0.00 | 0.84 | 0.00 | 66 | 1015.7 |
| 20260507175507 | 16 | 225 | 0.0 | 3.2 | 0.00 | 0.84 | 0.00 | 66 | 1015.7 |
| 20260507175007 | 16 | 257 | 1.6 | 4.8 | 0.00 | 0.84 | 0.00 | 66 | 1015.7 |
| 20260507174007 | 16 | 279 | 3.2 | 4.8 | 0.00 | 0.84 | 0.00 | 63 | 1015.7 |
| 20260507172507 | 17 | 9 | 6.4 | 9.7 | 0.00 | 0.84 | 0.00 | 62 | 1015.7 |
| 20260507172007 | 17 | 183 | 0.0 | 4.8 | 0.00 | 0.84 | 0.00 | 63 | 1015.7 |
| 20260507170506 | 17 | 273 | 0.0 | 4.8 | 0.00 | 0.84 | 0.00 | 61 | 1015.7 |
| 20260507170006 | 17 | 247 | 3.2 | 6.4 | 0.00 | 1.14 | 0.00 | 61 | 1015.7 |
| 20260507165506 | 17 | 228 | 1.6 | 6.4 | 0.00 | 1.47 | 0.00 | 60 | 1014.7 |
| 20260507165007 | 17 | 212 | 3.2 | 6.4 | 0.00 | 1.47 | 0.00 | 60 | 1014.7 |
| 20260507164507 | 17 | 201 | 3.2 | 4.8 | 0.00 | 1.47 | 0.00 | 60 | 1014.7 |
| 20260507164007 | 17 | 193 | 1.6 | 3.2 | 0.00 | 1.47 | 0.00 | 59 | 1015.7 |
| 20260507163006 | 18 | 225 | 1.6 | 6.4 | 0.00 | 1.47 | 0.00 | 57 | 1015.7 |
| 20260507162506 | 18 | 245 | 1.6 | 6.4 | 0.00 | 1.47 | 0.00 | 55 | 1015.7 |
| 20260507162006 | 18 | 242 | 3.2 | 6.4 | 0.00 | 1.47 | 0.00 | 53 | 1015.7 |
| 20260507161006 | 18 | 181 | 0.0 | 3.2 | 0.00 | 1.47 | 0.00 | 49 | 1015.7 |
| 20260507160507 | 18 | 211 | 1.6 | 3.2 | 0.00 | 1.47 | 0.00 | 48 | 1015.7 |
| 20260507155507 | 19 | 269 | 3.2 | 9.7 | 0.00 | 1.47 | 0.00 | 46 | 1014.7 |
| 20260507154506 | 19 | 282 | 9.7 | 16.1 | 0.00 | 1.47 | 0.00 | 46 | 1014.7 |
| 20260507154009 | 19 | 275 | 4.8 | 14.5 | 0.00 | 1.47 | 0.00 | 47 | 1016.7 |
| 20260507153006 | 20 | 267 | 9.7 | 17.7 | 0.00 | 1.47 | 0.00 | 47 | 1016.7 |
| 20260507152506 | 20 | 263 | 11.3 | 19.3 | 0.00 | 1.47 | 0.00 | 47 | 1015.7 |
| 20260507151506 | 20 | 276 | 11.3 | 24.1 | 0.00 | 1.47 | 0.00 | 45 | 1015.7 |
| 20260507151007 | 21 | 284 | 8.0 | 24.1 | 0.00 | 1.47 | 0.00 | 46 | 1014.7 |
| 20260507150506 | 21 | 287 | 9.7 | 24.1 | 0.00 | 1.47 | 0.00 | 46 | 1014.7 |
| 20260507150007 | 21 | 292 | 6.4 | 24.1 | 0.00 | 1.47 | 0.00 | 45 | 1014.7 |
| 20260507145506 | 21 | 285 | 16.1 | 22.5 | 0.00 | 1.47 | 0.00 | 45 | 1014.7 |
| 20260507145006 | 21 | 282 | 11.3 | 19.3 | 0.00 | 1.47 | 0.00 | 44 | 1014.7 |
| 20260507144506 | 21 | 292 | 12.9 | 19.3 | 0.00 | 1.47 | 0.00 | 44 | 1014.7 |
| 20260507144006 | 21 | 292 | 12.9 | 22.5 | 0.00 | 1.47 | 0.00 | 43 | 1013.7 |
| 20260507143006 | 21 | 285 | 9.7 | 22.5 | 0.00 | 1.47 | 0.00 | 43 | 1013.7 |
| 20260507142506 | 21 | 285 | 11.3 | 17.7 | 0.00 | 1.47 | 0.00 | 42 | 1013.7 |
| 20260507142006 | 21 | 282 | 11.3 | 22.5 | 0.00 | 1.47 | 0.00 | 42 | 1013.7 |
| 20260507141506 | 21 | 288 | 11.3 | 22.5 | 0.00 | 1.47 | 0.00 | 41 | 1013.7 |
| 20260507141007 | 22 | 291 | 12.9 | 17.7 | 0.00 | 1.47 | 0.00 | 44 | 1013.7 |
| 20260507140007 | 22 | 270 | 3.2 | 19.3 | 0.00 | 1.47 | 0.00 | 43 | 1013.7 |
| 20260507135506 | 22 | 281 | 9.7 | 17.7 | 0.00 | 1.47 | 0.00 | 45 | 1013.7 |
| 20260507135006 | 22 | 270 | 9.7 | 16.1 | 0.00 | 1.47 | 0.00 | 43 | 1013.7 |
| 20260507134506 | 22 | 296 | 4.8 | 17.7 | 0.00 | 1.47 | 0.00 | 45 | 1013.7 |
| 20260507134006 | 22 | 310 | 6.4 | 17.7 | 0.00 | 1.47 | 0.00 | 45 | 1013.7 |
| 20260507133506 | 22 | 296 | 4.8 | 17.7 | 0.00 | 1.47 | 0.00 | 46 | 1013.7 |
| 20260507133006 | 22 | 286 | 9.7 | 17.7 | 0.00 | 1.47 | 0.00 | 47 | 1013.7 |
| 20260507132506 | 22 | 282 | 6.4 | 17.7 | 0.00 | 1.47 | 0.00 | 49 | 1013.7 |
| 20260507132007 | 22 | 276 | 6.4 | 14.5 | 0.00 | 1.47 | 0.00 | 49 | 1013.7 |
| 20260507131506 | 22 | 209 | 4.8 | 19.3 | 0.00 | 1.47 | 0.00 | 49 | 1013.7 |
| 20260507131007 | 22 | 178 | 14.5 | 20.9 | 0.00 | 1.47 | 0.00 | 49 | 1014.7 |
| 20260507130007 | 21 | 231 | 3.2 | 12.9 | 0.00 | 1.47 | 0.00 | 49 | 1014.7 |
| 20260507125506 | 21 | 234 | 6.4 | 12.9 | 0.00 | 1.47 | 0.00 | 48 | 1014.7 |
| 20260507124506 | 21 | 203 | 9.7 | 14.5 | 0.00 | 1.47 | 0.00 | 50 | 1014.7 |
| 20260507124006 | 21 | 183 | 9.7 | 14.5 | 0.00 | 1.47 | 0.00 | 50 | 1014.7 |
| 20260507123506 | 22 | 150 | 1.6 | 8.0 | 0.00 | 1.57 | 0.00 | 50 | 1014.7 |
| 20260507123006 | 22 | 129 | 1.6 | 6.4 | 0.00 | 1.57 | 0.00 | 49 | 1014.7 |
| 20260507122507 | 22 | 193 | 3.2 | 12.9 | 0.00 | 1.68 | 0.00 | 50 | 1014.7 |
| 20260507122006 | 22 | 224 | 4.8 | 12.9 | 0.00 | 1.68 | 0.00 | 50 | 1014.7 |
| 20260507120506 | 22 | 217 | 3.2 | 11.3 | 0.00 | 1.68 | 0.00 | 50 | 1014.7 |
| 20260507115507 | 22 | 229 | 6.4 | 19.3 | 0.00 | 1.68 | 0.00 | 50 | 1014.7 |
| 20260507115006 | 22 | 243 | 1.6 | 19.3 | 0.00 | 1.78 | 0.00 | 51 | 1014.7 |
| 20260507114506 | 22 | 231 | 8.0 | 14.5 | 0.00 | 1.78 | 0.00 | 51 | 1014.7 |
| 20260507114007 | 21 | 208 | 6.4 | 17.7 | 0.00 | 1.78 | 0.00 | 52 | 1015.7 |
| 20260507113506 | 21 | 218 | 3.2 | 17.7 | 0.00 | 1.78 | 0.00 | 53 | 1015.7 |
| 20260507113007 | 21 | 217 | 8.0 | 17.7 | 0.00 | 1.78 | 0.00 | 51 | 1015.7 |
| 20260507112506 | 21 | 220 | 3.2 | 17.7 | 0.00 | 1.78 | 0.00 | 53 | 1014.7 |
| 20260507112006 | 21 | 210 | 8.0 | 14.5 | 0.00 | 1.78 | 0.00 | 53 | 1014.7 |
| 20260507111507 | 21 | 187 | 4.8 | 17.7 | 0.00 | 1.88 | 0.00 | 53 | 1014.7 |
| 20260507110506 | 21 | 289 | 9.7 | 17.7 | 0.00 | 1.88 | 0.00 | 53 | 1014.7 |
| 20260507110006 | 21 | 250 | 8.0 | 17.7 | 0.00 | 1.88 | 0.00 | 55 | 1014.7 |
| 20260507105506 | 21 | 254 | 3.2 | 12.9 | 0.00 | 1.88 | 0.00 | 54 | 1014.7 |
| 20260507105006 | 21 | 277 | 8.0 | 19.3 | 0.00 | 1.88 | 0.00 | 55 | 1014.7 |
| 20260507104506 | 21 | 243 | 11.3 | 19.3 | 0.00 | 1.88 | 0.00 | 55 | 1014.7 |
| 20260507104006 | 21 | 221 | 3.2 | 17.7 | 0.00 | 1.88 | 0.00 | 54 | 1014.7 |
| 20260507103506 | 21 | 208 | 9.7 | 17.7 | 0.00 | 1.88 | 0.00 | 55 | 1014.7 |
| 20260507103006 | 21 | 207 | 4.8 | 19.3 | 0.00 | 1.88 | 0.00 | 55 | 1014.7 |
| 20260507102506 | 21 | 239 | 4.8 | 19.3 | 0.00 | 1.88 | 0.00 | 55 | 1015.7 |
| 20260507102007 | 21 | 286 | 8.0 | 14.5 | 0.00 | 1.88 | 0.00 | 56 | 1015.7 |
| 20260507101507 | 21 | 295 | 11.3 | 19.3 | 0.00 | 1.98 | 0.00 | 57 | 1015.7 |
| 20260507101006 | 21 | 242 | 8.0 | 19.3 | 0.00 | 1.98 | 0.00 | 57 | 1015.7 |
| 20260507100507 | 21 | 197 | 6.4 | 16.1 | 0.00 | 1.98 | 0.00 | 59 | 1015.7 |
| 20260507100006 | 21 | 222 | 11.3 | 16.1 | 0.00 | 1.98 | 0.00 | 58 | 1015.7 |
| 20260507095006 | 20 | 268 | 11.3 | 17.7 | 0.00 | 1.98 | 0.00 | 59 | 1015.7 |
| 20260507094006 | 20 | 296 | 8.0 | 17.7 | 0.00 | 1.98 | 0.00 | 62 | 1014.7 |
| 20260507093505 | 20 | 292 | 9.7 | 17.7 | 0.00 | 1.98 | 0.00 | 63 | 1014.7 |
| 20260507092506 | 19 | 296 | 9.7 | 20.9 | 0.00 | 1.98 | 0.00 | 65 | 1015.7 |
| 20260507092006 | 19 | 299 | 4.8 | 20.9 | 0.00 | 1.98 | 0.00 | 67 | 1015.7 |
| 20260507091505 | 19 | 301 | 4.8 | 14.5 | 0.00 | 1.98 | 0.00 | 67 | 1015.7 |
| 20260507091006 | 19 | 296 | 6.4 | 14.5 | 0.00 | 1.98 | 0.00 | 67 | 1014.7 |
| 20260507090507 | 18 | 264 | 6.4 | 14.5 | 0.00 | 1.98 | 0.00 | 72 | 1014.7 |
| 20260507090006 | 18 | 258 | 4.8 | 6.4 | 0.00 | 1.98 | 0.00 | 74 | 1014.7 |
| 20260507085006 | 17 | 254 | 3.2 | 6.4 | 0.00 | 1.98 | 0.00 | 74 | 1014.7 |
| 20260507084506 | 17 | 262 | 6.4 | 12.9 | 0.00 | 1.98 | 0.00 | 74 | 1014.7 |
| 20260507084006 | 17 | 273 | 9.7 | 14.5 | 0.00 | 2.11 | 0.00 | 74 | 1014.7 |
| 20260507083506 | 18 | 273 | 4.8 | 14.5 | 0.00 | 2.11 | 0.00 | 75 | 1014.7 |
| 20260507083006 | 18 | 279 | 3.2 | 12.9 | 0.00 | 2.11 | 0.00 | 74 | 1014.7 |
| 20260507082506 | 18 | 302 | 8.0 | 14.5 | 0.00 | 2.11 | 0.00 | 77 | 1014.7 |
| 20260507081505 | 18 | 297 | 9.7 | 12.9 | 0.00 | 2.21 | 0.00 | 79 | 1014.7 |
| 20260507081007 | 17 | 290 | 4.8 | 11.3 | 0.00 | 2.21 | 0.00 | 79 | 1014.7 |
| 20260507080506 | 17 | 280 | 3.2 | 9.7 | 0.00 | 2.31 | 0.00 | 81 | 1014.7 |
| 20260507080006 | 17 | 270 | 6.4 | 11.3 | 0.00 | 2.31 | 0.00 | 81 | 1014.7 |
| 20260507075506 | 17 | 266 | 3.2 | 11.3 | 0.00 | 2.41 | 0.00 | 80 | 1014.7 |
| 20260507074506 | 17 | 285 | 4.8 | 9.7 | 0.00 | 2.41 | 0.00 | 82 | 1014.7 |
| 20260507074006 | 17 | 298 | 4.8 | 9.7 | 0.00 | 2.41 | 0.00 | 85 | 1014.7 |
| 20260507073505 | 17 | 310 | 6.4 | 9.7 | 0.00 | 2.41 | 0.00 | 86 | 1014.7 |
| 20260507073005 | 17 | 335 | 3.2 | 6.4 | 0.00 | 2.41 | 0.00 | 86 | 1014.7 |
| 20260507072006 | 17 | 296 | 3.2 | 9.7 | 0.00 | 2.51 | 0.00 | 89 | 1014.7 |
| 20260507071506 | 16 | 290 | 4.8 | 9.7 | 0.00 | 2.51 | 0.00 | 90 | 1014.7 |
| 20260507071006 | 16 | 305 | 4.8 | 8.0 | 0.00 | 2.51 | 0.00 | 92 | 1014.7 |
| 20260507070506 | 16 | 282 | 4.8 | 8.0 | 0.00 | 2.51 | 0.00 | 93 | 1014.7 |
| 20260507070010 | 16 | 265 | 3.2 | 8.0 | 0.00 | 2.51 | 0.00 | 93 | 1014.7 |
| 20260507064507 | 16 | 259 | 3.2 | 6.4 | 0.00 | 2.64 | 0.00 | 94 | 1013.7 |
| 20260507064006 | 16 | 210 | 3.2 | 4.8 | 0.00 | 2.72 | 0.00 | 94 | 1013.7 |
| 20260507063505 | 15 | 189 | 0.0 | 3.2 | 0.00 | 2.84 | 0.00 | 94 | 1013.7 |
| 20260507063006 | 15 | 214 | 0.0 | 3.2 | 0.00 | 2.95 | 0.00 | 95 | 1013.7 |
| 20260507062506 | 15 | 206 | 3.2 | 3.2 | 0.00 | 3.05 | 0.00 | 95 | 1013.7 |
| 20260507062006 | 15 | 274 | 0.0 | 3.2 | 0.00 | 3.25 | 0.00 | 94 | 1013.7 |
| 20260507061505 | 15 | 327 | 1.6 | 3.2 | 0.00 | 3.25 | 0.00 | 94 | 1013.7 |
| 20260507061006 | 15 | 327 | 1.6 | 3.2 | 0.00 | 3.35 | 0.00 | 96 | 1013.7 |
| 20260507060505 | 15 | 314 | 0.0 | 3.2 | 0.00 | 3.48 | 0.00 | 96 | 1013.7 |
| 20260507060006 | 15 | 335 | 0.0 | 3.2 | 0.00 | 3.58 | 0.00 | 96 | 1013.7 |
| 20260507055506 | 14 | 73 | 0.0 | 3.2 | 0.00 | 3.58 | 0.00 | 96 | 1013.7 |
| 20260507055006 | 14 | 113 | 0.0 | 4.8 | 0.00 | 3.58 | 0.00 | 96 | 1013.7 |
| 20260507054006 | 14 | 86 | 3.2 | 4.8 | 0.00 | 3.58 | 0.00 | 96 | 1013.7 |
| 20260507053506 | 14 | 54 | 1.6 | 3.2 | 0.00 | 3.58 | 0.00 | 95 | 1013.7 |
| 20260507053006 | 14 | 39 | 0.0 | 3.2 | 0.00 | 3.58 | 0.00 | 95 | 1013.7 |
| 20260507052006 | 14 | 23 | 0.0 | 3.2 | 0.00 | 3.58 | 0.00 | 95 | 1013.7 |
| 20260507051006 | 13 | 25 | 1.6 | 3.2 | 0.00 | 3.58 | 0.00 | 95 | 1013.7 |
| 20260507050006 | 13 | 100 | 0.0 | 3.2 | 0.00 | 3.58 | 0.00 | 94 | 1013.7 |
| 20260507045505 | 13 | 88 | 1.6 | 4.8 | 0.00 | 3.58 | 0.00 | 94 | 1013.7 |
| 20260507044506 | 13 | 51 | 0.0 | 3.2 | 0.00 | 3.58 | 0.00 | 94 | 1013.7 |
| 20260507043506 | 14 | 0 | 0.0 | 0.0 | 0.00 | 3.58 | 0.00 | 94 | 1013.7 |
| 20260507043005 | 14 | 0 | 0.0 | 0.0 | 0.00 | 3.58 | 0.00 | 94 | 1013.7 |
| 20260507042506 | 14 | 292 | 0.0 | 3.2 | 0.00 | 3.58 | 0.00 | 94 | 1013.7 |
| 20260507042005 | 14 | 283 | 0.0 | 3.2 | 0.00 | 3.58 | 0.00 | 94 | 1013.7 |
| 20260507041506 | 14 | 18 | 0.0 | 3.2 | 0.00 | 3.58 | 0.00 | 94 | 1013.7 |
| 20260507041005 | 14 | 58 | 1.6 | 3.2 | 0.00 | 3.58 | 0.00 | 94 | 1013.7 |
| 20260507040506 | 14 | 86 | 3.2 | 3.2 | 0.00 | 3.58 | 0.00 | 94 | 1013.7 |
| 20260507040005 | 14 | 89 | 1.6 | 3.2 | 0.00 | 3.58 | 0.00 | 94 | 1013.7 |
| 20260507035506 | 14 | 85 | 0.0 | 4.8 | 0.00 | 3.58 | 0.00 | 94 | 1013.7 |
| 20260507034506 | 14 | 87 | 3.2 | 6.4 | 0.00 | 3.58 | 0.00 | 94 | 1013.7 |
| 20260507034006 | 14 | 65 | 3.2 | 6.4 | 0.00 | 3.58 | 0.00 | 94 | 1013.7 |
| 20260507033506 | 14 | 72 | 1.6 | 3.2 | 0.00 | 3.58 | 0.00 | 94 | 1013.7 |
| 20260507033005 | 14 | 77 | 0.0 | 4.8 | 0.00 | 3.58 | 0.00 | 94 | 1013.7 |
| 20260507032506 | 15 | 72 | 3.2 | 4.8 | 0.00 | 3.58 | 0.00 | 94 | 1013.7 |
| 20260507032005 | 15 | 86 | 3.2 | 6.4 | 0.00 | 3.58 | 0.00 | 94 | 1013.7 |
| 20260507030506 | 15 | 131 | 3.2 | 8.0 | 0.00 | 3.58 | 0.00 | 94 | 1013.7 |
| 20260507030005 | 15 | 172 | 3.2 | 8.0 | 0.00 | 3.58 | 0.00 | 94 | 1013.7 |
| 20260507025506 | 15 | 232 | 3.2 | 6.4 | 0.00 | 3.58 | 0.00 | 94 | 1013.7 |
| 20260507024506 | 15 | 278 | 3.2 | 4.8 | 0.00 | 3.58 | 0.00 | 94 | 1013.7 |
| 20260507024005 | 15 | 294 | 1.6 | 4.8 | 0.00 | 3.58 | 0.00 | 94 | 1013.7 |
| 20260507023506 | 15 | 270 | 1.6 | 12.9 | 0.00 | 3.58 | 0.00 | 95 | 1013.7 |
| 20260507023005 | 15 | 265 | 1.6 | 12.9 | 0.00 | 3.58 | 0.00 | 95 | 1013.7 |
| 20260507021506 | 15 | 251 | 3.2 | 6.4 | 0.00 | 3.58 | 0.00 | 96 | 1013.7 |
| 20260507021005 | 15 | 269 | 3.2 | 4.8 | 0.00 | 3.58 | 0.00 | 96 | 1012.7 |
| 20260507020506 | 15 | 19 | 0.0 | 3.2 | 0.00 | 3.58 | 0.00 | 96 | 1012.7 |
| 20260507020005 | 15 | 8 | 1.6 | 4.8 | 0.00 | 3.58 | 0.00 | 96 | 1012.7 |
| 20260507015506 | 15 | 248 | 1.6 | 4.8 | 0.00 | 3.58 | 0.00 | 96 | 1012.7 |
| 20260507015006 | 15 | 281 | 3.2 | 4.8 | 0.00 | 3.58 | 0.00 | 96 | 1012.7 |
| 20260507014505 | 15 | 293 | 0.0 | 8.0 | 0.00 | 3.58 | 0.00 | 96 | 1012.7 |
| 20260507014006 | 15 | 281 | 4.8 | 8.0 | 0.00 | 3.58 | 0.00 | 96 | 1013.7 |
| 20260507013505 | 15 | 262 | 6.4 | 8.0 | 0.00 | 3.58 | 0.00 | 95 | 1013.7 |
| 20260507013006 | 15 | 257 | 3.2 | 8.0 | 0.00 | 3.58 | 0.00 | 95 | 1013.7 |
| 20260507012505 | 15 | 247 | 3.2 | 6.4 | 0.00 | 3.58 | 0.00 | 95 | 1013.7 |
| 20260507012006 | 15 | 230 | 3.2 | 6.4 | 0.00 | 3.58 | 0.00 | 95 | 1013.7 |
| 20260507011506 | 15 | 258 | 3.2 | 8.0 | 0.00 | 3.58 | 0.00 | 96 | 1013.7 |
| 20260507011005 | 15 | 274 | 3.2 | 8.0 | 0.00 | 3.58 | 0.00 | 95 | 1012.7 |
| 20260507010506 | 15 | 270 | 4.8 | 8.0 | 0.00 | 3.58 | 0.00 | 95 | 1012.7 |
| 20260507010006 | 14 | 260 | 3.2 | 6.4 | 0.00 | 3.58 | 0.00 | 95 | 1012.7 |
| 20260507005006 | 15 | 272 | 3.2 | 6.4 | 0.00 | 3.68 | 0.00 | 95 | 1012.7 |
| 20260507004506 | 15 | 277 | 3.2 | 6.4 | 0.00 | 3.68 | 0.00 | 95 | 1012.7 |
| 20260507004005 | 14 | 267 | 4.8 | 6.4 | 0.00 | 3.78 | 0.00 | 95 | 1013.7 |
| 20260507003506 | 14 | 260 | 4.8 | 6.4 | 0.00 | 3.89 | 0.00 | 95 | 1013.7 |
| 20260507002505 | 14 | 269 | 4.8 | 6.4 | 0.00 | 4.22 | 0.00 | 95 | 1013.7 |
| 20260507001505 | 14 | 257 | 3.2 | 6.4 | 0.00 | 4.62 | 0.00 | 95 | 1013.7 |
| 20260507001006 | 14 | 256 | 1.6 | 6.4 | 0.00 | 4.62 | 0.00 | 95 | 1012.7 |
| 20260507000506 | 14 | 243 | 4.8 | 6.4 | 0.00 | 4.72 | 0.00 | 95 | 1012.7 |
| 20260507000006 | 14 | 247 | 3.2 | 6.4 | 0.00 | 4.72 | 0.00 | 95 | 1012.7 |
| 20260506235506 | 14 | 249 | 3.2 | 6.4 | 0.00 | 4.85 | 0.00 | 95 | 1013.7 |
| 20260506235005 | 14 | 236 | 3.2 | 6.4 | 0.00 | 4.85 | 0.00 | 95 | 1013.7 |
| 20260506234506 | 14 | 262 | 4.8 | 11.3 | 0.00 | 4.85 | 0.00 | 95 | 1013.7 |
| 20260506234005 | 14 | 266 | 3.2 | 11.3 | 0.00 | 4.85 | 0.00 | 95 | 1013.7 |
| 20260506233506 | 14 | 266 | 4.8 | 8.0 | 0.00 | 4.93 | 0.00 | 95 | 1013.7 |
| 20260506233006 | 14 | 260 | 3.2 | 8.0 | 0.00 | 5.05 | 0.00 | 95 | 1013.7 |
| 20260506232506 | 14 | 267 | 4.8 | 6.4 | 0.00 | 5.05 | 0.00 | 95 | 1013.7 |
| 20260506232019 | 14 | 285 | 4.8 | 6.4 | 0.00 | 5.16 | 0.00 | 95 | 1013.7 |
| 20260506231524 | 14 | 248 | 3.2 | 6.4 | 0.00 | 5.26 | 0.00 | 95 | 1013.7 |
| 20260506230507 | 14 | 241 | 3.2 | 8.0 | 0.00 | 5.26 | 0.00 | 95 | 1013.7 |
| 20260506225506 | 14 | 244 | 4.8 | 8.0 | 0.00 | 5.26 | 0.00 | 95 | 1013.7 |